Regional Weather Roundup
Issued by NWS Wilmington, NC

Home | Current Version | Previous Version | Text Only | Print | Product List | Glossary On
Versions: 1 2 3 4 5 6 7 8 9 10 11 12 13 14 15 16 17 18 19 20 21 22 23 24 25 26 27
000
ASUS42 KILM 301313
RWRILM
RWRILM
REGIONAL HOURLY WEATHER ROUNDUP
NATIONAL WEATHER SERVICE WILMINGTON NC
900 AM EDT TUE MAY 30 2017

NOTE: "FAIR" INDICATES FEW OR NO CLOUDS BELOW 12,000 FEET WITH NO
SIGNIFICANT WEATHER AND/OR OBSTRUCTIONS TO VISIBILITY.

...............WFO WILMINGTON COUNTY WARNING AREA...............

......COASTAL NC AND SC COUNTIES......

CITY           SKY/WX    TMP DP  RH WIND       PRES   REMARKS
WILMINGTON     CLOUDY    77  73  87 S5        30.07R
N MYRTLE BEACH CLOUDY    78  72  81 S7        30.07S
MYRTLE BEACH   SUNNY     79  72  78 S8        30.08R

......INLAND NC AND SC COUNTIES.......

CITY           SKY/WX    TMP DP  RH WIND       PRES   REMARKS
LUMBERTON      CLOUDY    71  69  93 W6        30.07S
ELIZABETHTOWN  CLOUDY    72  71  96 CALM      30.07R
WHITEVILLE     CLOUDY    74  71  90 CALM      30.07R
FLORENCE       MOSUNNY   72  71  97 W5        30.10R
DARLINGTON     CLOUDY    71  70  96 SW6       30.10R
KINGSTREE      CLOUDY    72  70  94 W6        30.09R
HARTSVILLE     FAIR      70  68  94 SW3       30.10R
BENNETTSVILLE  FAIR      73  72  94 SW5       30.09R
CONWAY         FAIR      73  70  88 S5        30.08S FOG
GEORGETOWN     FAIR      77  73  88 CALM      30.10R
MARION         CLOUDY    70  68  94 W5        30.09R FOG

....................REST OF NORTH CAROLINA......................

.........EASTERN NC.........

CITY           SKY/WX    TMP DP  RH WIND       PRES   REMARKS
CAPE HATTERAS  PTSUNNY   75  70  84 SE9       30.06F
JACKSONVILLE   PTSUNNY   74  70  87 S7        30.08R
MOREHEAD CITY  RAIN      68  67  96 SE8       30.10R FOG
KENANSVILLE    CLOUDY    73  70  88 CALM      30.08R
NEW BERN       CLOUDY    72  70  93 SW5       30.07R
ELIZABETH CITY CLOUDY    74  71  91 S5        30.06S

.........CENTRAL NC.........

CITY           SKY/WX    TMP DP  RH WIND       PRES   REMARKS
RALEIGH DURHAM LGT RAIN  71  68  90 S6        30.08R
ROCKY MOUNT    PTSUNNY   72  70  93 W5        30.07S
ROANOKE RAPIDS NOT AVBL
FAYETTEVILLE   CLOUDY    73  70  90 SW7       30.07R
HOFFMAN        CLOUDY    71  68  92 SW6       30.08R

.........WESTERN NC.........

CITY           SKY/WX    TMP DP  RH WIND       PRES   REMARKS
CHARLOTTE      CLOUDY    70  66  87 W5        30.10R
GREENSBORO     CLOUDY    69  67  93 SW6       30.09R
HICKORY        NOT AVBL
BOONE          NOT AVBL
ASHEVILLE      NOT AVBL

.....................REST OF SOUTH CAROLINA.....................

.........EASTERN SC.........

CITY           SKY/WX    TMP DP  RH WIND       PRES   REMARKS
CHARLESTON     MOSUNNY   81  70  69 VRB5      30.09R
BEAUFORT MCAS  CLOUDY    81  72  74 W3        30.10R
HILTON HEAD    MOSUNNY   81  70  69 CALM      30.10S

.........CENTRAL SC.........

CITY           SKY/WX    TMP DP  RH WIND       PRES   REMARKS
COLUMBIA       CLOUDY    72  68  87 W3        30.09R
ORANGEBURG     MOSUNNY   73  68  84 W5        30.10R
SUMTER SHAW    PTSUNNY   71  67  89 SW3       30.07R

.........WESTERN SC.........

CITY           SKY/WX    TMP DP  RH WIND       PRES   REMARKS
GREENVILLE     NOT AVBL
ROCK HILL      PTSUNNY   71  67  87 VRB6      30.11R
ANDERSON       CLOUDY    69  64  84 W6        30.12R
CLEMSON        NOT AVBL
GREENWOOD      MOSUNNY   69  66  90 SW7       30.13R


...................COASTAL AND OFFSHORE REPORTS..................

................LOCAL PIERS AND NC RESERVE................


STATION/POSITION TIME  SKY/WX   TEMP    WIND        PRES    VSBY
                                AIR SEA DIR/SP/G
                 (UTC)          (F)     (DEG/KT/KT) (MB)    (MI)
JOHNY MRCER PIER 1248            78 76   CALM  /  1 1017.6R
NC RESRV MASNBRO 1145            73     240/  2     1019.0
OCEAN CREST PIER NOT AVBL
SPRINGMAID  PIER 1248                               1017.9R


................COASTAL AND OFFSHORE BUOYS................


STATION/POSITION TIME  SKY/WX   TEMP    WIND        PRES    VSBY
                                AIR SEA DIR/SP/G
                 (UTC)          (F)     (DEG/KT/KT) (MB)    (MI)
DIMNDSHOAL 41025 NOT AVBL
CAPE LOOKOUT     1300            73     310/ 22/ 29 1020.1R
ONSLOW BAY 41036 NOT AVBL
ONSLOW BAY 41064 1208            76 76  150/ 10/ 12 1018.4S
ONSLOW BAY 41159 1243               76                N/A
WVE H/P(F/S)=  2/ 5

MASNBO INL 41110 1229               76                N/A
WVE H/P(F/S)=  2/ 5

WILM HARBR 41108 1247               77                N/A
WVE H/P(F/S)=  2/ 5

27SE WRITB 41037 1208            75 77  140/ 10/ 14 1017.6F
FRYING PAN 41013 NOT AVBL
SUNST NRSH 41024 1208            76 77  170/  4/  6 1018.3R
CAPRS NRSH 41029 1208            81 78  320/  8/ 10 1018.6R
EDISTO     41004 NOT AVBL


..........OFFSHORE BUOYS BEYOND 100 NM OFFSHORE...........
.....IN A TRIANGLE---HAT TO BERMUDA TO BAHAMAS TO HAT.....


STATION/POSITION TIME  SKY/WX   TEMP    WIND        PRES    VSBY
                                AIR SEA DIR/SP/G
                 (UTC)          (F)     (DEG/KT/KT) (MB)    (MI)
150E HAT   41001 NOT AVBL
W BERMUDA  41048 NOT AVBL
ATLANTIC S 41049 NOT AVBL
E BAHAMAS  41046 NOT AVBL
NE BAHAMAS 41047 NOT AVBL
120E CANVRL41010 NOT AVBL

END




USA.gov is the U.S. government's official web portal to all federal, state and local government web resources and services.